Danville, VA

11:03 AM EST on February 24, 2017 (GMT -0500)
Danville Regional

Weather History for KDAN - March, 2013

Change the Weather History Date:

Sunday, March 17, 2013

  Actual Average Record
Temperature  
Mean Temperature 49 °F 49 °F  
Max Temperature 60 °F 59 °F 80 °F (1995)
Min Temperature 38 °F 38 °F 20 °F (1970)
Degree Days  
Heating Degree Days 16 16  
Month to date heating degree days 351 316  
Since 1 July heating degree days 3146 3317  
Cooling Degree Days 0 0  
Month to date cooling degree days 0 0  
Year to date cooling degree days 2 0  
Moisture  
Dew Point 40 °F    
Average Humidity 83    
Maximum Humidity 96    
Minimum Humidity 70    
Precipitation  
Precipitation 0.03 in 0.14 in 1.19 in (2000)
Month to date precipitation 1.48 1.98  
Year to date precipitation 11.29 8.41  
Snow  
Snow 0.00 in - - ()
Month to date snowfall T  
Since 1 July snowfall 1.7  
Snow Depth 0.00 in    
Sea Level Pressure  
Sea Level Pressure 30.05 in    
Wind  
Wind Speed 9 mph (ENE)    
Max Wind Speed 18 mph    
Max Gust Speed 24 mph    
Visibility 8 miles    
Events Rain    
T = Trace of Precipitation, MM = Missing Value Source: NWS Daily Summary

Daily Weather History Graph

Daily Weather History Graph

Search for Another Location

Airport or City:

Trip Planner

Search our weather history database for the weather conditions in past years. The results will help you decide how hot, cold, wet, or windy it might be!

Date:

Astronomy

Mar. 17, 2013 Rise Set
Actual Time 7:24 AM EDT 7:26 PM EDT
Civil Twilight 6:59 AM EDT 7:52 PM EDT
Nautical Twilight 6:29 AM EDT 8:22 PM EDT
Astronomical Twilight 5:58 AM EDT 8:52 PM EDT
Moon 10:45 AM EDT (3/17) 12:24 AM EDT (3/17)
Length of Visible Light 12h 53m
Length of Day
12h 01m
Waxing Crescent, 31% of the Moon is Illuminated
Mar 17
Waxing Crescent
Mar 19
First Quarter
Mar 27
Full
Apr 3
Last Quarter
Apr 10
New

Hourly Weather History & Observations

Time (EDT) Temp. Windchill Dew Point Humidity Pressure Visibility Wind Dir Wind Speed Gust Speed Precip Events Conditions
12:53 AM 54.0 °F - 48.9 °F 83% 29.82 in 10.0 mi West 3.5 mph - N/A   Clear
1:53 AM 53.1 °F - 48.0 °F 83% 29.84 in 10.0 mi SW 4.6 mph - N/A   Clear
2:53 AM 51.1 °F - 46.9 °F 86% 29.85 in 10.0 mi Calm Calm - N/A   Clear
3:53 AM 53.1 °F - 48.0 °F 83% 29.87 in 10.0 mi ENE 5.8 mph - N/A   Clear
4:16 AM 51.8 °F - 48.2 °F 88% 29.90 in 9.0 mi NE 10.4 mph - N/A   Scattered Clouds
4:25 AM 51.8 °F - 48.2 °F 88% 29.89 in 3.0 mi ENE 10.4 mph - N/A   Mostly Cloudy
4:29 AM 51.8 °F - 50.0 °F 94% 29.89 in 1.8 mi ENE 11.5 mph - N/A   Mostly Cloudy
4:53 AM 52.0 °F - 50.0 °F 93% 29.88 in 2.0 mi ENE 9.2 mph - N/A   Overcast
5:02 AM 51.8 °F - 50.0 °F 94% 29.91 in 6.0 mi ENE 12.7 mph 19.6 mph N/A   Overcast
5:53 AM 52.0 °F - 48.9 °F 89% 29.92 in 7.0 mi ENE 9.2 mph - N/A   Overcast
6:53 AM 50.0 °F - 46.0 °F 86% 29.94 in 8.0 mi ENE 5.8 mph - N/A   Overcast
7:53 AM 48.9 °F - 44.1 °F 83% 29.97 in 8.0 mi ENE 8.1 mph - N/A   Overcast
8:15 AM 48.2 °F - 42.8 °F 82% 30.01 in 10.0 mi East 9.2 mph 16.1 mph N/A   Overcast
8:19 AM 48.2 °F - 41.0 °F 76% 30.01 in 10.0 mi East 12.7 mph 18.4 mph N/A   Overcast
8:33 AM 48.2 °F - 41.0 °F 76% 30.02 in 10.0 mi ENE 11.5 mph 18.4 mph N/A   Overcast
8:40 AM 48.2 °F - 39.2 °F 71% 30.02 in 10.0 mi ENE 13.8 mph - N/A   Overcast
8:53 AM 48.0 °F - 39.9 °F 74% 30.01 in 10.0 mi ENE 8.1 mph - N/A   Overcast
9:53 AM 46.9 °F - 39.0 °F 74% 30.05 in 10.0 mi ENE 8.1 mph 18.4 mph 0.00 in   Overcast
10:31 AM 46.4 °F 40.7 °F 39.2 °F 76% 30.08 in 10.0 mi ENE 12.7 mph - N/A   Overcast
10:41 AM 44.6 °F 38.1 °F 39.2 °F 81% 30.09 in 10.0 mi NE 13.8 mph - N/A   Overcast
10:53 AM 45.0 °F 38.9 °F 39.0 °F 80% 30.06 in 10.0 mi East 12.7 mph 19.6 mph N/A   Overcast
11:34 AM 44.6 °F 39.7 °F 39.2 °F 81% 30.10 in 6.0 mi ENE 9.2 mph - 0.01 in Rain Light Rain
11:42 AM 44.6 °F 38.4 °F 39.2 °F 81% 30.10 in 7.0 mi East 12.7 mph 16.1 mph 0.01 in Rain Light Rain
11:53 AM 44.1 °F 38.1 °F 39.0 °F 82% 30.08 in 9.0 mi ENE 11.5 mph - 0.01 in Rain Light Rain
12:02 PM 44.6 °F 39.2 °F 39.2 °F 81% 30.10 in 9.0 mi ENE 10.4 mph - 0.00 in   Overcast
12:50 PM 44.6 °F 38.4 °F 37.4 °F 76% 30.12 in 10.0 mi ENE 12.7 mph - 0.00 in   Overcast
12:53 PM 44.1 °F 38.1 °F 37.9 °F 79% 30.10 in 10.0 mi ENE 11.5 mph - 0.00 in   Overcast
1:15 PM 42.8 °F 36.2 °F 37.4 °F 81% 30.11 in 10.0 mi ENE 12.7 mph - N/A   Overcast
1:53 PM 43.0 °F 37.2 °F 37.0 °F 80% 30.09 in 10.0 mi ENE 10.4 mph - N/A   Overcast
2:28 PM 42.8 °F 35.4 °F 35.6 °F 76% 30.09 in 10.0 mi ENE 15.0 mph 21.9 mph N/A   Overcast
2:53 PM 44.1 °F 37.1 °F 36.0 °F 73% 30.07 in 10.0 mi NE 15.0 mph - N/A   Overcast
3:53 PM 43.0 °F 36.8 °F 36.0 °F 76% 30.09 in 10.0 mi NE 11.5 mph - N/A   Overcast
4:53 PM 43.0 °F 36.4 °F 36.0 °F 76% 30.08 in 10.0 mi NE 12.7 mph - N/A   Overcast
5:53 PM 42.1 °F 34.9 °F 36.0 °F 79% 30.09 in 10.0 mi NE 13.8 mph - N/A   Overcast
6:53 PM 41.0 °F 35.2 °F 36.0 °F 82% 30.12 in 10.0 mi ENE 9.2 mph - N/A   Overcast
7:12 PM 41.0 °F 33.5 °F 35.6 °F 81% 30.13 in 10.0 mi NE 13.8 mph 20.7 mph N/A   Overcast
7:53 PM 39.9 °F 33.4 °F 35.1 °F 83% 30.12 in 9.0 mi ENE 10.4 mph - N/A   Overcast
8:53 PM 39.0 °F 32.8 °F 36.0 °F 89% 30.16 in 4.0 mi ENE 9.2 mph 17.3 mph N/A   Overcast
9:16 PM 39.2 °F 33.0 °F 35.6 °F 87% 30.17 in 2.5 mi NE 9.2 mph - N/A   Overcast
9:37 PM 39.2 °F 34.2 °F 35.6 °F 87% 30.18 in 3.0 mi NE 6.9 mph - N/A   Overcast
9:53 PM 39.0 °F 33.4 °F 36.0 °F 89% 30.19 in 4.0 mi ENE 8.1 mph - N/A   Overcast
10:20 PM 39.2 °F 33.6 °F 35.6 °F 87% 30.20 in 2.5 mi ENE 8.1 mph - N/A   Overcast
10:34 PM 39.2 °F 33.0 °F 35.6 °F 87% 30.19 in 3.0 mi NE 9.2 mph - N/A   Overcast
10:45 PM 39.2 °F 33.0 °F 35.6 °F 87% 30.20 in 2.5 mi ENE 9.2 mph - 0.00 in Rain Light Rain
10:53 PM 39.0 °F 34.0 °F 36.0 °F 89% 30.19 in 2.5 mi ENE 6.9 mph - 0.00 in Rain Light Rain
11:07 PM 39.2 °F 33.6 °F 35.6 °F 87% 30.19 in 3.0 mi East 8.1 mph - 0.01 in Rain Light Rain
11:53 PM 39.0 °F 32.8 °F 36.0 °F 89% 30.19 in 6.0 mi ENE 9.2 mph - 0.01 in Rain Light Rain